Location: Rancho Del Sol Observatory
(38.7214°N, 120.6350°W)
Time: 10:05:24
(UTC-08:00)

A-11 Canister half - Pass Details

Date: 01 February 2020
Orbit: 1517 x 1683 km, 47.2° (Epoch: 22 February)

Event Time Altitude Azimuth Distance (km) Brightness Sun altitude
Rises 23:37:11 0° 271° (W) 4,759 - -66.6°
Reaches altitude 10° 23:40:26 10° 276° (W) 3,753 - -66.9°
Maximum altitude 23:49:37 52° 352° (N) 1,838 - -67.5°
Drops below altitude 10° 23:58:38 10° 68° (ENE) 3,680 - -67.9°
Sets 00:01:47 0° 73° (ENE) 4,660 - -68.0°
